{"data":{"norad_id":60552,"epoch":"2026-09-22T17:05:19.373856Z","epoch_age_seconds":97866,"freshness":"FRESH","line1":"1 60552U 24149CN  26265.71202979  .00000976  00000+0  86755-4 0  9992","line2":"2 60552  97.6764 340.8509 0006575 106.8892 253.3052 14.98380957114689","mean_motion":14.98380957,"eccentricity":0.0006575,"inclination_deg":97.6764,"raan_deg":340.8509,"arg_perigee_deg":106.8892,"mean_anomaly_deg":253.3052,"bstar":8.6755e-5,"rev_number":11468,"period_min":96.103730714992,"perigee_km":567.32866687155,"apogee_km":576.4679633109,"semimajor_km":6950.0353150912,"source":"CELESTRAK","updated_at":"2026-09-23T09:00:20.698309Z"}}